Location: Augirein
(42.9320°N, 0.9181°E)
Time: 02:14:36
(UTC+00:00)

Cosmos 1271 Rocket - Pass Details

Date: 20 June 2021
Orbit: 498 x 543 km, 81.2° (Epoch: 04 August)

Event Time Altitude Azimuth Distance (km) Brightness Sun altitude
Rises 02:14:12 0° 359° (N) 2,599 7.2 -16.6°
Reaches altitude 10° 02:16:29 10° 9° (N) 1,712 6.4 -16.4°
Maximum altitude 02:19:53 32° 75° (ENE) 877 4.3 -16.0°
Drops below altitude 10° 02:23:17 10° 140° (SE) 1,710 5.2 -15.7°
Enters shadow 02:24:42 - 147° (SSE) 2,256 5.7 -15.5°
